Location: Palomar Mountain Lodge
(33.3110°N, 116.8495°W)
Time: 18:37:02
(UTC-07:00)

Cosmos 921 Rocket - Pass Details

Date: 14 June 2018
Orbit: 572 x 632 km, 75.8° (Epoch: 20 August)

Event Time Altitude Azimuth Distance (km) Brightness Sun altitude
Rises 23:10:20 0° 350° (N) 2,886 7.6 -28.8°
Reaches altitude 10° 23:12:36 10° 355° (N) 1,985 6.5 -29.0°
Enters shadow 23:15:27 36° 15° (NNE) 983 4.4 -29.3°
